Location: ???????????
(55.5758°N, 38.4970°E)
Time: 18:19:49
(UTC+00:00)

Cosmos 1939 Rocket - Pass Details

Date: 15 November 2025
Orbit: 491 x 528 km, 97.5° (Epoch: 14 December)

Event Time Altitude Azimuth Distance (km) Brightness Sun altitude
Rises 03:21:08 0° 7° (N) 2,688 6.3 -13.7°
Reaches altitude 10° 03:23:30 10° 354° (N) 1,791 5.2 -13.4°
Maximum altitude 03:26:41 25° 299° (WNW) 1,099 3.8 -13.0°
Enters shadow 03:28:34 17° 257° (WSW) 1,376 4.3 -12.7°
